Terug naar catalogus

USA 15

ActiefMilitairLEO
NORAD 16591·PAYLOAD·🇺🇸 United States

Gelanceerd Feb 9, 1986 vanaf Vandenberg Space Force Base

Loading…

Volgende Passages (komende 24 uur)

TLE

VersSource: Space-Track

Epoch: Sep 14, 2026, 05:57 UTC

1 16591U 86014A   26257.24792196  .00008987  00000-0  48903-3 0  9992
2 16591  63.3057 352.8432 0647911 114.6421 252.3528 14.17184696120548

Volg USA 15 in realtime met AllMySat

Download on the App Store